SL-12 R/B(2)

Last updated on Tue Jul 08 2025 00:02:13 GMT+0000 (Coordinated Universal Time)

1 15772U 85042D 25188.61153900 -.00000022 00000+0 11708-4 0 9995 2 15772 71.1070 245.4624 0034062 150.1740 322.0874 14.21892948 79550
UTC large
Height (km)
Speed (km/s)
/
Latitude / Longitude
Inclination (degrees)
Orbital Period (minutes)
Azimuth
Elevation
Range (km)
Doppler Factor

Next 0 passes for location: London (51.5072 / 0.1276)

Sorry there are no passes over London.